Weather in Parakou

Benin     9˚21′36″N   2˚37′16″E
temp.,
°C
wind,
m/s
gust,
m/s
humid.,
%
clouds,
%
prec.,
mm/h
press.,
hPa
HPBL,
m
2 december, wed
wed201:00+24˚e12250 0.0 101123
04:00+22˚ssw12480 0.0 101124
07:00+21˚sse12801 0.0 101223
10:00+30˚sw115855 0.0 1014644
13:00+35˚e352228 0.0 10102167
16:00+37˚ene45120 0.0 10072710
19:00+30˚ne22170 0.0 100924
22:00+26˚ene23180 0.0 101125
3 december, thu
thu301:00+25˚ne12190 0.0 101223
04:00+22˚sse12270 0.0 101123
07:00+21˚sse12756 0.0 101323
10:00+30˚ssw115325 0.0 1014589
13:00+35˚e362125 0.0 10102217
16:00+37˚ene46120 0.0 10083042
19:00+30˚ene23160 0.0 100930
22:00+27˚ne34190 0.0 101263
4 december, fri
fri401:00+25˚e12210 0.0 101128
04:00+22˚s22420 0.0 101130
07:00+21˚sse22890 0.0 101325
10:00+29˚s22600 0.0 1013674
13:00+36˚ese34240 0.0 10102157
16:00+37˚ese25170 0.0 10082864
19:00+31˚e22241 0.0 100925
22:00+28˚s342952 0.0 101177
5 december, sat
sat501:00+25˚ssw234844 0.0 101156
04:00+23˚ssw247273 0.0 1010107
07:00+22˚s239153 0.0 101284
10:00+29˚ssw34590 0.0 1013702
13:00+38˚ssw12260 0.0 10102292
16:00+37˚e12220 0.0 10073010
19:00+31˚ssw12295 0.0 100925
22:00+29˚sse23374 0.0 101150
6 december, sun
sun601:00+26˚s27688 0.0 1011432
04:00+24˚ssw277856 0.0 1011326
07:00+23˚ssw278645 0.0 1011272
10:00+29˚s345812 0.0 1013821
13:00+37˚s13306 0.0 10102241
16:00+35˚e232740 0.0 10072892
19:00+31˚sw123144 0.0 100827
22:00+30˚s343813 0.0 1011112